| time (UTC) | temp F | wind direction | speed MPH | gust MPH | rain 1hr in | rain 24hr in | rain mn in | humidity % | barometer mb |
| 20260831041516 | 88 | 248 | 7.0 | 17.0 | 0.00 | 0.00 | 0.00 | 41 | 1023.6 |
| 20260831040516 | 89 | 270 | 7.0 | 12.0 | 0.00 | 0.00 | 0.00 | 40 | 1023.5 |
| 20260831035516 | 89 | 270 | 9.0 | 16.0 | 0.00 | 0.00 | 0.00 | 39 | 1023.1 |
| 20260831034516 | 89 | 270 | 9.0 | 15.0 | 0.00 | 0.00 | 0.00 | 38 | 1022.9 |
| 20260831033516 | 90 | 248 | 8.0 | 15.0 | 0.00 | 0.00 | 0.00 | 38 | 1023.0 |
| 20260831032516 | 90 | 248 | 8.0 | 16.0 | 0.00 | 0.00 | 0.00 | 38 | 1022.2 |
| 20260831031516 | 92 | 248 | 9.0 | 13.0 | 0.00 | 0.00 | 0.00 | 37 | 1022.2 |
| 20260831030516 | 92 | 270 | 5.0 | 8.0 | 0.00 | 0.00 | 0.00 | 35 | 1021.7 |
| 20260831025516 | 92 | 270 | 2.0 | 5.0 | 0.00 | 0.00 | 0.00 | 34 | 1021.6 |
| 20260831024516 | 93 | 270 | 3.0 | 5.0 | 0.00 | 0.00 | 0.00 | 34 | 1021.4 |
| 20260831023516 | 93 | 270 | 2.0 | 4.0 | 0.00 | 0.00 | 0.00 | 34 | 1021.2 |
| 20260831022516 | 93 | 270 | 1.0 | 3.0 | 0.00 | 0.00 | 0.00 | 33 | 1020.9 |
| 20260831021516 | 93 | 248 | 4.0 | 8.0 | 0.00 | 0.00 | 0.00 | 33 | 1020.8 |
| 20260831020516 | 93 | 248 | 4.0 | 7.0 | 0.00 | 0.00 | 0.00 | 33 | 1020.9 |
| 20260831015516 | 94 | 248 | 4.0 | 7.0 | 0.00 | 0.00 | 0.00 | 32 | 1020.9 |
| 20260831014516 | 94 | 225 | 4.0 | 7.0 | 0.00 | 0.00 | 0.00 | 32 | 1020.9 |
| 20260831013516 | 94 | 225 | 4.0 | 9.0 | 0.00 | 0.00 | 0.00 | 32 | 1020.8 |
| 20260831012516 | 95 | 225 | 4.0 | 6.0 | 0.00 | 0.00 | 0.00 | 31 | 1020.9 |
| 20260831011516 | 95 | 225 | 4.0 | 7.0 | 0.00 | 0.00 | 0.00 | 31 | 1020.8 |
| 20260831010516 | 96 | 248 | 7.0 | 11.0 | 0.00 | 0.00 | 0.00 | 30 | 1020.9 |
| 20260831005516 | 97 | 225 | 6.0 | 10.0 | 0.00 | 0.00 | 0.00 | 30 | 1021.0 |
| 20260831004516 | 97 | 248 | 5.0 | 9.0 | 0.00 | 0.00 | 0.00 | 30 | 1021.0 |
| 20260831003516 | 98 | 225 | 8.0 | 11.0 | 0.00 | 0.00 | 0.00 | 29 | 1021.2 |
| 20260831002516 | 99 | 293 | 4.0 | 13.0 | 0.00 | 0.00 | 0.00 | 29 | 1021.1 |
| 20260831001517 | 99 | 248 | 4.0 | 8.0 | 0.00 | 0.00 | 0.00 | 28 | 1021.3 |
| 20260831000516 | 100 | 225 | 6.0 | 11.0 | 0.00 | 0.00 | 0.00 | 28 | 1021.3 |
| 20260830235516 | 100 | 225 | 6.0 | 13.0 | 0.00 | 0.00 | 0.00 | 27 | 1021.3 |
| 20260830234516 | 100 | 248 | 3.0 | 8.0 | 0.00 | 0.00 | 0.00 | 27 | 1021.2 |
| 20260830233516 | 100 | 293 | 7.0 | 11.0 | 0.00 | 0.00 | 0.00 | 28 | 1021.5 |
| 20260830232516 | 100 | 248 | 5.0 | 8.0 | 0.00 | 0.00 | 0.00 | 28 | 1021.7 |
| 20260830231516 | 100 | 225 | 5.0 | 11.0 | 0.00 | 0.00 | 0.00 | 28 | 1021.9 |
| 20260830230516 | 100 | 293 | 4.0 | 6.0 | 0.00 | 0.00 | 0.00 | 28 | 1022.0 |
| 20260830225516 | 100 | 270 | 6.0 | 11.0 | 0.00 | 0.00 | 0.00 | 27 | 1022.2 |
| 20260830224516 | 101 | 203 | 6.0 | 12.0 | 0.00 | 0.00 | 0.00 | 27 | 1022.5 |
| 20260830223516 | 100 | 45 | 3.0 | 10.0 | 0.00 | 0.00 | 0.00 | 28 | 1022.6 |
| 20260830222516 | 101 | 270 | 5.0 | 8.0 | 0.00 | 0.00 | 0.00 | 28 | 1022.7 |
| 20260830221516 | 101 | 180 | 5.0 | 8.0 | 0.00 | 0.00 | 0.00 | 27 | 1023.0 |
| 20260830220516 | 100 | 225 | 5.0 | 10.0 | 0.00 | 0.00 | 0.00 | 28 | 1023.1 |
| 20260830215536 | 100 | 180 | 5.0 | 12.0 | 0.00 | 0.00 | 0.00 | 27 | 1023.4 |
| 20260830214516 | 99 | 113 | 3.0 | 9.0 | 0.00 | 0.00 | 0.00 | 28 | 1023.6 |
| 20260830213516 | 99 | 180 | 3.0 | 9.0 | 0.00 | 0.00 | 0.00 | 29 | 1023.8 |
| 20260830212516 | 99 | 248 | 5.0 | 10.0 | 0.00 | 0.00 | 0.00 | 29 | 1024.0 |
| 20260830211536 | 99 | 248 | 8.0 | 11.0 | 0.00 | 0.00 | 0.00 | 30 | 1024.1 |
| 20260830210516 | 98 | 248 | 3.0 | 7.0 | 0.00 | 0.00 | 0.00 | 30 | 1024.3 |
| 20260830205516 | 98 | 225 | 5.0 | 13.0 | 0.00 | 0.00 | 0.00 | 30 | 1024.5 |
| 20260830204516 | 98 | 248 | 4.0 | 11.0 | 0.00 | 0.00 | 0.00 | 30 | 1024.7 |
| 20260830203516 | 99 | 68 | 4.0 | 6.0 | 0.00 | 0.00 | 0.00 | 29 | 1024.9 |
| 20260830202516 | 98 | 225 | 3.0 | 6.0 | 0.00 | 0.00 | 0.00 | 30 | 1025.2 |
| 20260830201516 | 98 | 270 | 4.0 | 11.0 | 0.00 | 0.00 | 0.00 | 31 | |
| 20260830200516 | 97 | 158 | 3.0 | 7.0 | 0.00 | 0.00 | 0.00 | 31 | |
| 20260830195516 | 98 | 203 | 4.0 | 8.0 | 0.00 | 0.00 | 0.00 | 30 | |
| 20260830194516 | 97 | 158 | 3.0 | 7.0 | 0.00 | 0.00 | 0.00 | 31 | |
| 20260830193556 | 96 | 248 | 5.0 | 8.0 | 0.00 | 0.00 | 0.00 | 31 | |
| 20260830192516 | 97 | 248 | 6.0 | 12.0 | 0.00 | 0.00 | 0.00 | 31 | |
| 20260830191516 | 97 | 293 | 7.0 | 12.0 | 0.00 | 0.00 | 0.00 | 30 | |
| 20260830190516 | 97 | 270 | 5.0 | 11.0 | 0.00 | 0.00 | 0.00 | 32 | |
| 20260830185516 | 97 | 270 | 5.0 | 11.0 | 0.00 | 0.00 | 0.00 | 32 | |
| 20260830184516 | 97 | 248 | 4.0 | 6.0 | 0.00 | 0.00 | 0.00 | 31 | |
| 20260830183516 | 97 | 225 | 3.0 | 9.0 | 0.00 | 0.00 | 0.00 | 31 | |
| 20260830182536 | 96 | 180 | 3.0 | 6.0 | 0.00 | 0.00 | 0.00 | 32 | |
| 20260830181516 | 96 | 225 | 3.0 | 6.0 | 0.00 | 0.00 | 0.00 | 32 | |
| 20260830180516 | 96 | 158 | 2.0 | 6.0 | 0.00 | 0.00 | 0.00 | 34 | |
| 20260830175516 | 95 | 203 | 3.0 | 7.0 | 0.00 | 0.00 | 0.00 | 35 | |
| 20260830174516 | 94 | 203 | 2.0 | 4.0 | 0.00 | 0.00 | 0.00 | 36 | |
| 20260830173516 | 94 | 203 | 4.0 | 10.0 | 0.00 | 0.00 | 0.00 | 37 | |
| 20260830172516 | 92 | 180 | 1.0 | 5.0 | 0.00 | 0.00 | 0.00 | 38 | |
| 20260830171556 | 91 | 248 | 4.0 | 7.0 | 0.00 | 0.00 | 0.00 | 38 | |
| 20260830170516 | 91 | 23 | 2.0 | 6.0 | 0.00 | 0.00 | 0.00 | 40 | |
| 20260830165516 | 90 | 203 | 2.0 | 6.0 | 0.00 | 0.00 | 0.00 | 40 | |
| 20260830164516 | 90 | 225 | 3.0 | 6.0 | 0.00 | 0.00 | 0.00 | 41 | |
| 20260830163556 | 88 | 225 | 2.0 | 5.0 | 0.00 | 0.00 | 0.00 | 43 | |
| 20260830162516 | 88 | 248 | 2.0 | 5.0 | 0.00 | 0.00 | 0.00 | 43 | |
| 20260830161516 | 88 | 270 | 2.0 | 4.0 | 0.00 | 0.00 | 0.00 | 42 | |
| 20260830160516 | 89 | 203 | 3.0 | 5.0 | 0.00 | 0.00 | 0.00 | 42 | |
| 20260830155516 | 88 | 180 | 2.0 | 5.0 | 0.00 | 0.00 | 0.00 | 42 | |
| 20260830154516 | 88 | 203 | 2.0 | 6.0 | 0.00 | 0.00 | 0.00 | 43 | |
| 20260830153556 | 86 | 180 | 2.0 | 6.0 | 0.00 | 0.00 | 0.00 | 45 | |
| 20260830152516 | 84 | 158 | 2.0 | 3.0 | 0.00 | 0.00 | 0.00 | 48 | |
| 20260830151516 | 82 | 225 | 1.0 | 3.0 | 0.00 | 0.00 | 0.00 | 53 | |
| 20260830150516 | 81 | 0.0 | 0.0 | 0.00 | 0.00 | 0.00 | 56 | ||
| 20260830145516 | 81 | 0.0 | 0.0 | 0.00 | 0.00 | 0.00 | 59 | ||
| 20260830144516 | 81 | 0.0 | 0.0 | 0.00 | 0.00 | 0.00 | 58 | ||
| 20260830143516 | 80 | 0.0 | 0.0 | 0.00 | 0.00 | 0.00 | 58 | ||
| 20260830142516 | 80 | 0.0 | 0.0 | 0.00 | 0.00 | 0.00 | 58 | ||
| 20260830141536 | 80 | 0.0 | 0.0 | 0.00 | 0.00 | 0.00 | 57 | ||
| 20260830140516 | 80 | 0.0 | 0.0 | 0.00 | 0.00 | 0.00 | 56 | ||
| 20260830135556 | 80 | 0.0 | 0.0 | 0.00 | 0.00 | 0.00 | 55 | ||
| 20260830134516 | 80 | 0.0 | 0.0 | 0.00 | 0.00 | 0.00 | 54 | ||
| 20260830133516 | 81 | 0.0 | 0.0 | 0.00 | 0.00 | 0.00 | 53 | ||
| 20260830132556 | 81 | 315 | 1.0 | 3.0 | 0.00 | 0.00 | 0.00 | 51 | |
| 20260830131516 | 82 | 293 | 3.0 | 6.0 | 0.00 | 0.00 | 0.00 | 50 | |
| 20260830130636 | 82 | 270 | 3.0 | 7.0 | 0.00 | 0.00 | 0.00 | 50 | |
| 20260830125516 | 82 | 293 | 4.0 | 8.0 | 0.00 | 0.00 | 0.00 | 50 | |
| 20260830124516 | 82 | 225 | 1.0 | 4.0 | 0.00 | 0.00 | 0.00 | 49 | |
| 20260830123516 | 82 | 270 | 4.0 | 8.0 | 0.00 | 0.00 | 0.00 | 49 | |
| 20260830122516 | 82 | 270 | 6.0 | 10.0 | 0.00 | 0.00 | 0.00 | 49 | |
| 20260830121516 | 82 | 293 | 6.0 | 12.0 | 0.00 | 0.00 | 0.00 | 49 | |
| 20260830120516 | 81 | 315 | 5.0 | 8.0 | 0.00 | 0.00 | 0.00 | 49 | |
| 20260830115515 | 82 | 315 | 4.0 | 9.0 | 0.00 | 0.00 | 0.00 | 49 | |
| 20260830114516 | 81 | 315 | 5.0 | 10.0 | 0.00 | 0.00 | 0.00 | 48 | |
| 20260830113515 | 81 | 293 | 3.0 | 7.0 | 0.00 | 0.00 | 0.00 | 49 | |
| 20260830112535 | 81 | 315 | 4.0 | 6.0 | 0.00 | 0.00 | 0.00 | 50 | |
| 20260830111536 | 81 | 315 | 3.0 | 5.0 | 0.00 | 0.00 | 0.00 | 49 | |
| 20260830110516 | 82 | 0 | 4.0 | 7.0 | 0.00 | 0.00 | 0.00 | 49 | |
| 20260830105556 | 82 | 135 | 4.0 | 8.0 | 0.00 | 0.00 | 0.00 | 49 | |
| 20260830104556 | 81 | 158 | 5.0 | 8.0 | 0.00 | 0.00 | 0.00 | 50 | |
| 20260830103516 | 81 | 180 | 3.0 | 5.0 | 0.00 | 0.00 | 0.00 | 51 | |
| 20260830102535 | 81 | 203 | 1.0 | 4.0 | 0.00 | 0.00 | 0.00 | 51 | |
| 20260830101516 | 81 | 0.0 | 0.0 | 0.00 | 0.00 | 0.00 | 51 | ||
| 20260830100556 | 81 | 0.0 | 0.0 | 0.00 | 0.00 | 0.00 | 50 | ||
| 20260830095516 | 82 | 0.0 | 0.0 | 0.00 | 0.00 | 0.00 | 50 | ||
| 20260830094516 | 82 | 0.0 | 0.0 | 0.00 | 0.00 | 0.00 | 49 | ||
| 20260830093555 | 83 | 0.0 | 0.0 | 0.00 | 0.00 | 0.00 | 48 | ||
| 20260830092516 | 83 | 0.0 | 0.0 | 0.00 | 0.00 | 0.00 | 47 | ||
| 20260830091556 | 84 | 0.0 | 1.0 | 0.00 | 0.00 | 0.00 | 47 | ||
| 20260830090516 | 84 | 293 | 2.0 | 4.0 | 0.00 | 0.00 | 0.00 | 46 | |
| 20260830085516 | 84 | 315 | 2.0 | 4.0 | 0.00 | 0.00 | 0.00 | 46 | |
| 20260830084536 | 84 | 338 | 4.0 | 6.0 | 0.00 | 0.00 | 0.00 | 47 | 1025.9 |
| 20260830083516 | 84 | 23 | 5.0 | 10.0 | 0.00 | 0.00 | 0.00 | 47 | 1025.8 |
| 20260830082536 | 84 | 0 | 12.0 | 19.0 | 0.00 | 0.00 | 0.00 | 47 | 1025.6 |
| 20260830081516 | 0 | 0.0 | 0.0 | 0.00 | 0.00 | 0.00 | |||
| 20260830080535 | 0 | 0.0 | 0.0 | 0.00 | 0.00 | 0.00 | |||
| 20260830075516 | 0 | 0.0 | 0.0 | 0.00 | 0.00 | 0.00 | |||
| 20260830074555 | 0 | 0.0 | 0.0 | 0.00 | 0.00 | 0.00 | |||
| 20260830073515 | 0 | 0.0 | 0.0 | 0.00 | 0.00 | 0.00 | |||
| 20260830072555 | 0 | 0.0 | 0.0 | 0.00 | 0.00 | 0.00 | |||
| 20260830071515 | 0 | 0.0 | 0.0 | 0.00 | 0.00 | 0.00 | |||
| 20260830070536 | 0 | 0.0 | 0.0 | 0.00 | 0.00 | 0.00 | |||
| 20260830065516 | 0 | 0.0 | 0.0 | 0.00 | 0.00 | 0.00 | |||
| 20260830064515 | 0 | 0.0 | 0.0 | 0.00 | 0.00 | 0.00 | |||
| 20260830063536 | 0 | 0.0 | 0.0 | 0.00 | 0.00 | 0.00 | |||
| 20260830062555 | 0 | 0.0 | 0.0 | 0.00 | 0.00 | 0.00 | |||
| 20260830061555 | 0 | 0.0 | 0.0 | 0.00 | 0.00 | 0.00 | |||
| 20260830060515 | 0 | 0.0 | 0.0 | 0.00 | 0.00 | 0.00 | |||
| 20260830055516 | 0 | 0.0 | 0.0 | 0.00 | 0.00 | 0.00 | |||
| 20260830054517 | 0 | 0.0 | 0.0 | 0.00 | 0.00 | 0.00 | |||
| 20260830053517 | 0 | 0.0 | 0.0 | 0.00 | 0.00 | 0.00 | |||
| 20260830052517 | 0 | 0.0 | 0.0 | 0.00 | 0.00 | 0.00 | |||
| 20260830051518 | 0 | 0.0 | 0.0 | 0.00 | 0.00 | 0.00 | |||
| 20260830050557 | 0 | 0.0 | 0.0 | 0.00 | 0.00 | 0.00 | |||
| 20260830045517 | 0 | 0.0 | 0.0 | 0.00 | 0.00 | 0.00 | |||
| 20260830044537 | 0 | 0.0 | 0.0 | 0.00 | 0.00 | 0.00 | |||
| 20260830043538 | 0 | 0.0 | 0.0 | 0.00 | 0.00 | 0.00 | |||
| 20260830042537 | 0 | 0.0 | 0.0 | 0.00 | 0.00 | 0.00 |